When you browse on this site, cookies collect data to enhance your experience and personalize the content and advertising you see.
Visit our Privacy Policy to learn more. By continuing to use the site, you agree to this use of cookies and data.
  • In United Kingdom
  • List of Countries
  • For 7 days
  • Water Temperature
  • Satellite Maps
  • Weather Map
  • Weather Widgets
  • user-avatar
    Login

    Hourly Weather Santa Cruz Xoxocotlan

    Today, 19 March, Tuesday

    Time Temperature Precipitation Wind Pressure Humidity
    00:00 +18°C° 0.1 mm 1 mps 635 mmHg 84%
    01:00 +18°C° 0 mm 1 mps 635 mmHg 84%
    02:00 +18°C° 0 mm 1 mps 634 mmHg 84%
    03:00 +18°C° 0 mm 1 mps 634 mmHg 85%
    04:00 +16°C° 0 mm 1 mps 634 mmHg 85%
    05:00 +16°C° 0 mm 1 mps 634 mmHg 86%
    06:00 +16°C° 0 mm 1 mps 634 mmHg 87%
    07:00 +18°C° 0 mm 1 mps 635 mmHg 80%
    08:00 +20°C° 0 mm 1 mps 636 mmHg 72%
    09:00 +21°C° 0 mm 1 mps 637 mmHg 65%
    10:00 +23°C° 0 mm 1 mps 637 mmHg 57%
    11:00 +26°C° 0 mm 1 mps 638 mmHg 49%
    12:00 +26°C° 0 mm 0 mps 639 mmHg 40%
    13:00 +28°C° 0 mm 1 mps 638 mmHg 39%
    14:00 +28°C° 0 mm 1 mps 637 mmHg 39%
    15:00 +28°C° 0 mm 2 mps 636 mmHg 38%
    16:00 +26°C° 0.1 mm 2 mps 636 mmHg 44%
    17:00 +25°C° 0.1 mm 2 mps 635 mmHg 50%
    18:00 +24°C° 0.1 mm 2 mps 635 mmHg 56%
    19:00 +23°C° 0.1 mm 2 mps 635 mmHg 63%
    20:00 +20°C° 0.1 mm 2 mps 635 mmHg 70%
    21:00 +19°C° 0.1 mm 2 mps 635 mmHg 77%
    22:00 +19°C° 0 mm 2 mps 635 mmHg 79%
    23:00 +18°C° 0 mm 2 mps 636 mmHg 81%

    Tomorrow, 20 March, Wednesday

    Time Temperature Precipitation Wind Pressure Humidity
    00:00 +18°C° 0 mm 2 mps 636 mmHg 82%
    01:00 +18°C° 0 mm 1 mps 635 mmHg 83%
    02:00 +18°C° 0 mm 1 mps 635 mmHg 84%
    03:00 +18°C° 0 mm 1 mps 634 mmHg 85%
    04:00 +16°C° 0 mm 1 mps 634 mmHg 87%
    05:00 +16°C° 0 mm 1 mps 634 mmHg 88%
    06:00 +15°C° 0 mm 1 mps 634 mmHg 90%
    07:00 +18°C° 0 mm 1 mps 635 mmHg 82%
    08:00 +19°C° 0 mm 1 mps 636 mmHg 73%
    09:00 +21°C° 0 mm 1 mps 637 mmHg 65%
    10:00 +23°C° 0 mm 1 mps 637 mmHg 56%
    11:00 +25°C° 0 mm 1 mps 638 mmHg 47%
    12:00 +28°C° 0 mm 1 mps 638 mmHg 38%
    13:00 +27°C° 0 mm 1 mps 637 mmHg 38%
    14:00 +27°C° 0 mm 1 mps 636 mmHg 38%
    15:00 +27°C° 0 mm 2 mps 636 mmHg 38%
    16:00 +26°C° 0.1 mm 2 mps 635 mmHg 45%
    17:00 +25°C° 0.1 mm 2 mps 635 mmHg 51%
    18:00 +23°C° 0.1 mm 2 mps 635 mmHg 58%
    19:00 +21°C° 0.3 mm 2 mps 635 mmHg 63%
    20:00 +20°C° 0.3 mm 2 mps 635 mmHg 69%
    21:00 +20°C° 0.3 mm 2 mps 636 mmHg 75%
    22:00 +19°C° 0.1 mm 2 mps 636 mmHg 77%
    23:00 +19°C° 0.1 mm 2 mps 636 mmHg 80%

    Day after tomorrow, 21 March, Thursday

    Time Temperature Precipitation Wind Pressure Humidity
    00:00 +18°C° 0.1 mm 2 mps 636 mmHg 82%
    01:00 +19°C° 0 mm 1 mps 635 mmHg 84%
    02:00 +18°C° 0 mm 1 mps 635 mmHg 85%
    03:00 +18°C° 0 mm 1 mps 634 mmHg 86%
    04:00 +16°C° 0 mm 1 mps 634 mmHg 87%
    05:00 +16°C° 0 mm 1 mps 634 mmHg 88%
    06:00 +16°C° 0 mm 1 mps 634 mmHg 89%
    07:00 +18°C° 0 mm 1 mps 635 mmHg 81%
    08:00 +18°C° 0 mm 2 mps 636 mmHg 73%
    09:00 +20°C° 0 mm 2 mps 637 mmHg 66%
    10:00 +23°C° 0 mm 2 mps 637 mmHg 57%
    11:00 +25°C° 0 mm 2 mps 637 mmHg 49%
    12:00 +27°C° 0 mm 2 mps 638 mmHg 41%
    13:00 +27°C° 0 mm 2 mps 637 mmHg 40%
    14:00 +27°C° 0 mm 3 mps 636 mmHg 40%
    15:00 +27°C° 0 mm 3 mps 636 mmHg 39%
    16:00 +26°C° 0.1 mm 3 mps 636 mmHg 45%
    17:00 +25°C° 0.1 mm 3 mps 635 mmHg 50%
    18:00 +23°C° 0.1 mm 2 mps 635 mmHg 55%
    19:00 +21°C° 0.2 mm 2 mps 636 mmHg 61%
    20:00 +20°C° 0.2 mm 2 mps 636 mmHg 67%
    21:00 +19°C° 0.2 mm 2 mps 636 mmHg 72%
    22:00 +19°C° 0 mm 2 mps 636 mmHg 75%
    23:00 +18°C° 0 mm 2 mps 636 mmHg 77%

    22 March, Friday

    Time Temperature Precipitation Wind Pressure Humidity
    00:00 +17°C° 0 mm 2 mps 636 mmHg 79%
    01:00 +17°C° 0 mm 2 mps 635 mmHg 81%
    02:00 +16°C° 0 mm 1 mps 635 mmHg 83%
    03:00 +16°C° 0 mm 1 mps 634 mmHg 84%
    04:00 +15°C° 0 mm 1 mps 634 mmHg 84%
    05:00 +15°C° 0 mm 1 mps 634 mmHg 84%
    06:00 +15°C° 0 mm 1 mps 634 mmHg 84%
    07:00 +18°C° 0 mm 1 mps 635 mmHg 76%
    08:00 +19°C° 0 mm 1 mps 636 mmHg 68%
    09:00 +21°C° 0 mm 1 mps 637 mmHg 61%
    10:00 +23°C° 0 mm 1 mps 637 mmHg 54%
    11:00 +25°C° 0 mm 1 mps 638 mmHg 47%
    12:00 +27°C° 0 mm 2 mps 638 mmHg 40%
    13:00 +27°C° 0.1 mm 2 mps 637 mmHg 40%
    14:00 +27°C° 0.1 mm 2 mps 636 mmHg 40%
    15:00 +27°C° 0.1 mm 2 mps 635 mmHg 41%
    16:00 +26°C° 0.3 mm 2 mps 635 mmHg 46%
    17:00 +25°C° 0.3 mm 2 mps 635 mmHg 51%
    18:00 +23°C° 0.3 mm 1 mps 635 mmHg 56%
    19:00 +22°C° 0.2 mm 1 mps 635 mmHg 62%
    20:00 +21°C° 0.2 mm 1 mps 635 mmHg 67%
    21:00 +20°C° 0.2 mm 1 mps 636 mmHg 72%
    22:00 +19°C° 0 mm 1 mps 635 mmHg 77%
    23:00 +18°C° 0 mm 1 mps 635 mmHg 81%

    23 March, Saturday

    Time Temperature Precipitation Wind Pressure Humidity
    00:00 +16°C° 0 mm 0 mps 634 mmHg 85%
    01:00 +15°C° 0 mm 0 mps 634 mmHg 87%
    02:00 +15°C° 0 mm 0 mps 633 mmHg 88%
    03:00 +14°C° 0 mm 0 mps 633 mmHg 90%
    04:00 +14°C° 0 mm 0 mps 633 mmHg 90%
    05:00 +14°C° 0 mm 0 mps 633 mmHg 91%
    06:00 +14°C° 0 mm 0 mps 633 mmHg 91%
    07:00 +16°C° 0 mm 0 mps 634 mmHg 81%
    08:00 +19°C° 0 mm 0 mps 636 mmHg 71%
    09:00 +21°C° 0 mm 0 mps 637 mmHg 61%
    10:00 +25°C° 0 mm 1 mps 637 mmHg 52%
    11:00 +27°C° 0 mm 1 mps 637 mmHg 43%
    12:00 +29°C° 0 mm 2 mps 637 mmHg 34%
    13:00 +28°C° 0 mm 2 mps 636 mmHg 34%
    14:00 +28°C° 0 mm 2 mps 635 mmHg 34%
    15:00 +27°C° 0 mm 2 mps 634 mmHg 34%
    16:00 +27°C° 0 mm 2 mps 634 mmHg 37%
    17:00 +26°C° 0 mm 2 mps 634 mmHg 40%
    18:00 +26°C° 0 mm 2 mps 634 mmHg 44%
    19:00 +24°C° 0 mm 2 mps 634 mmHg 51%
    20:00 +22°C° 0 mm 1 mps 634 mmHg 58%
    21:00 +20°C° 0 mm 1 mps 635 mmHg 65%
    22:00 +20°C° 0 mm 1 mps 634 mmHg 70%
    23:00 +19°C° 0 mm 1 mps 634 mmHg 75%

    24 March, Sunday

    Time Temperature Precipitation Wind Pressure Humidity
    00:00 +16°C° 0 mm 0 mps 634 mmHg 80%
    01:00 +16°C° 0 mm 0 mps 633 mmHg 82%
    02:00 +15°C° 0 mm 0 mps 633 mmHg 84%
    03:00 +15°C° 0 mm 0 mps 632 mmHg 86%
    04:00 +15°C° 0 mm 0 mps 632 mmHg 87%
    05:00 +14°C° 0 mm 0 mps 632 mmHg 87%
    06:00 +14°C° 0 mm 0 mps 633 mmHg 88%
    07:00 +17°C° 0 mm 0 mps 634 mmHg 77%
    08:00 +19°C° 0 mm 0 mps 635 mmHg 66%
    09:00 +22°C° 0 mm 0 mps 636 mmHg 55%
    10:00 +24°C° 0 mm 0 mps 636 mmHg 47%
    11:00 +28°C° 0 mm 1 mps 637 mmHg 39%
    12:00 +30°C° 0 mm 1 mps 637 mmHg 31%
    13:00 +30°C° 0 mm 1 mps 636 mmHg 30%
    14:00 +31°C° 0 mm 1 mps 636 mmHg 28%
    15:00 +31°C° 0 mm 1 mps 635 mmHg 27%
    16:00 +30°C° 0 mm 1 mps 635 mmHg 30%
    17:00 +29°C° 0 mm 2 mps 634 mmHg 34%
    18:00 +27°C° 0 mm 2 mps 634 mmHg 38%
    19:00 +26°C° 0 mm 2 mps 634 mmHg 44%
    20:00 +24°C° 0 mm 1 mps 634 mmHg 51%
    21:00 +22°C° 0 mm 1 mps 634 mmHg 58%
    22:00 +21°C° 0 mm 1 mps 633 mmHg 62%
    23:00 +18°C° 0 mm 0 mps 633 mmHg 66%
    Show more